[[{"header":{"parameterUnit":"m.s-1","parameterCategory":1,"la1":30.2991,"la2":30.254,"lo1":-89.0895,"lo2":-89.0444,"dy":0.0017,"dx":0.0017,"nx":28,"ny":28,"refTime":"2024-06-09T09:00:00:Z","depth":0,"parameterNumber":2,"parameterNumberName":"U-component_of_WINDS"},"data":[0,0,0,0,0,0,0,0,0,0,0,0,0,0,0,0,0,0,0,0,0,0,0,0,0,0,0,0,0,0,0,0,0,0,0,0,0,0,0,0,0,0,0,0,0,0,0,0,0,0,0,0,0,0,0,0,0,0,-2.3748,-2.3752,0,-2.4097,-2.4101,-2.4105,-2.4312,-2.4312,-2.4313,-2.4314,-2.4653,-2.4661,-2.4669,0,0,0,0,0,0,0,0,0,0,0,0,0,-2.3243,-2.3251,-2.3748,-2.3752,-2.3756,-2.4096,-2.4101,-2.4106,-2.4311,-2.4313,-2.4314,-2.4315,-2.465,-2.466,-2.467,0,0,0,0,0,0,0,0,0,0,0,0,0,-2.3513,-2.3254,-2.3747,-2.3901,-2.3918,-2.4095,-2.4101,-2.4107,-2.4311,-2.4313,-2.4314,-2.4315,-2.4647,-2.4659,-2.4671,-2.4717,0,0,-2.4708,-2.4713,0,0,0,0,0,0,0,0,-2.3498,-2.3531,-2.3874,-2.389,-2.391,-2.4163,-2.4048,-2.4311,-2.4311,-2.4161,-2.4314,-2.4316,-2.4487,-2.4513,-2.4574,-2.4733,-2.4747,-2.4709,-2.4717,-2.4722,-2.4725,0,0,0,0,0,0,0,-2.3479,-2.3518,-2.3885,-2.3878,-2.39,-2.3946,-2.3987,-2.4098,-2.4311,-2.4174,-2.419,-2.423,-2.4497,-2.4562,-2.4584,-2.4752,-2.4709,-2.472,-2.4727,-2.4732,-2.4963,-2.4962,0,0,0,0,0,0,-2.3438,-2.3501,-2.3874,-2.3896,-2.3704,-2.3954,-2.3999,-2.408,-2.4311,-2.4348,-2.4228,-2.4238,-2.4541,-2.4569,-2.4596,-2.4664,-2.4722,-2.4733,-2.474,-2.4964,-2.4963,-2.4962,0,0,0,0,0,0,-2.3426,-2.3469,-2.386,-2.3703,-2.3756,-2.3962,-2.405,-2.4086,-2.4151,-2.4352,-2.4389,-2.4256,-2.4543,-2.4579,-2.4686,-2.4678,-2.4739,-2.475,-2.4966,-2.4964,-2.4962,-2.4799,0,0,0,0,0,0,-2.3411,-2.3464,-2.3487,-2.3702,-2.3764,-2.3949,-2.405,-2.4092,-2.4174,-2.419,-2.4388,-2.4422,-2.4547,-2.4667,-2.4698,-2.4696,-2.4759,-2.4967,-2.4965,-2.4963,-2.4806,-2.4792,-2.478,0,0,0,0,0,-2.3392,-2.3424,-2.3488,-2.3531,-2.3799,-2.3948,-2.3983,-2.4131,-2.4172,-2.4195,-2.4324,-2.4416,-2.4675,-2.4676,-2.4713,-2.4714,-2.4968,-2.4965,-2.4963,-2.4812,-2.4795,-2.478,0,0,0,0,0,0,-2.3196,-2.3455,-2.3528,-2.3632,-2.3767,-2.3983,-2.4016,-2.4109,-2.4231,-2.424,-2.4414,-2.4456,-2.4545,-2.4641,-2.4638,-2.477,-2.4832,-2.4836,-2.4704,-2.4689,-2.4677,-2.4649,-2.4769,0,0,0,0,0,-2.3166,-2.3272,-2.349,-2.356,-2.3625,-2.3808,-2.3879,-2.3982,-2.4127,-2.4183,-2.432,-2.4451,-2.4563,-2.4632,-2.4746,-2.4822,-2.4865,-2.4841,-2.4828,-2.4816,-2.4816,-2.486,-2.4851,-2.4953,-2.4953,-2.4953,0,0,-2.3103,-2.3257,-2.3312,-2.3524,-2.3642,-2.3741,-2.3855,-2.3956,-2.4029,-2.4197,-2.4307,-2.4412,-2.457,-2.4661,-2.4708,-2.4743,-2.4799,-2.4813,-2.4802,-2.4809,-2.4857,-2.4847,-2.4838,-2.4951,-2.4952,-2.4952,0,0,-2.3038,-2.3168,-2.324,-2.3356,-2.3534,-2.3657,-2.3673,-2.3877,-2.3954,-2.407,-2.4196,-2.4284,-2.4473,-2.458,-2.4659,-2.4636,-2.4723,-2.4668,-2.4597,-2.4638,-2.463,-2.4624,-2.4611,-2.4605,-2.4668,-2.4668,-2.4668,0,-2.2934,-2.3096,-2.3262,-2.3358,-2.3445,-2.3609,-2.3679,-2.3782,-2.3984,-2.4038,-2.4078,-2.4319,-2.4437,-2.4553,-2.4548,-2.4608,-2.4628,-2.4644,-2.4619,-2.4614,-2.4611,-2.46,-2.4596,-2.466,-2.4661,-2.4661,-2.4662,0,-2.2958,-2.3068,-2.3103,-2.3302,-2.3394,-2.3475,-2.3649,-2.3721,-2.3817,-2.3933,-2.4045,-2.4194,-2.4339,-2.4376,-2.4467,-2.4505,-2.4521,-2.4587,-2.4652,-2.459,-2.4583,-2.4581,-2.4648,-2.4651,-2.4653,-2.4655,0,0,-2.2775,-2.3069,-2.3078,-2.317,-2.338,-2.3464,-2.3551,-2.3701,-2.3757,-2.3892,-2.3965,-2.4123,-2.4186,-2.4275,-2.4381,-2.4417,-2.4384,-2.4479,-2.4485,-2.4452,-2.4429,-2.4374,-2.4367,-2.4446,-2.4446,-2.4446,-2.4414,0,-2.2737,-2.2909,-2.3062,-2.3174,-2.3275,-2.3433,-2.3508,-2.3641,-2.3752,-2.3849,-2.397,-2.4077,-2.4155,-2.421,-2.4253,-2.4379,-2.4381,-2.4384,-2.4508,-2.4511,-2.446,-2.4365,-2.4308,-2.4271,-2.4413,-2.4413,-2.4413,0,-2.2715,-2.2849,-2.2973,-2.3174,-2.3222,-2.3287,-2.3435,-2.3529,-2.3681,-2.3759,-2.386,-2.3973,-2.4066,-2.4124,-2.4252,-2.425,-2.431,-2.4379,-2.4382,-2.4394,-2.4454,-2.437,-2.4263,-2.4255,-2.4411,-2.4411,-2.4411,0,-2.2563,-2.2775,-2.2877,-2.2951,-2.3188,-2.323,-2.3329,-2.3485,-2.3564,-2.3692,-2.3744,-2.3878,-2.395,-2.4048,-2.4191,-2.4221,-2.4302,-2.4373,-2.4363,-2.4359,-2.4368,-2.4365,-2.4264,-2.4415,-2.4415,-2.4415,-2.4415,0,-2.2501,-2.2569,-2.2812,-2.2873,-2.2953,-2.3128,-2.32,-2.3312,-2.345,-2.3531,-2.3675,-2.3747,-2.3935,-2.4027,-2.414,-2.4225,-2.4257,-2.4318,-2.4346,-2.4302,-2.4294,-2.434,-2.4344,-2.4414,-2.4414,-2.4414,-2.4415,0,-2.2342,-2.2509,-2.2629,-2.2846,-2.2902,-2.2951,-2.3133,-2.3196,-2.3317,-2.3418,-2.3452,-2.3639,-2.3756,-2.3911,-2.4074,-2.4149,-2.4219,-2.4266,-2.4168,-2.4184,-2.4164,-2.4162,-2.4085,-2.4082,-2.4238,-2.4236,-2.4235,0,-2.2289,-2.2347,-2.2572,-2.264,-2.2737,-2.2845,-2.2929,-2.3102,-2.3182,-2.3361,-2.34,-2.353,-2.3643,-2.3821,-2.3967,-2.4091,-2.4139,-2.4104,-2.4158,-2.4112,-2.4132,-2.4125,-2.4129,-2.4088,-2.4085,-2.4083,-2.4082,0,-2.2176,-2.2256,-2.2375,-2.2522,-2.262,-2.2742,-2.287,-2.2916,-2.3115,-2.3196,-2.3322,-2.3409,-2.358,-2.3704,-2.3849,-2.3944,-2.4042,-2.4065,-2.4068,-2.4021,-2.396,-2.3988,-2.4126,-2.4064,-2.4066,-2.4067,-2.4068,-2.4069,-2.2065,-2.2123,-2.2291,-2.2417,-2.2534,-2.2651,-2.2721,-2.2854,-2.2963,-2.312,-2.3215,-2.3334,-2.3483,-2.369,-2.3781,-2.3873,-2.3911,-2.3917,-2.3918,-2.3915,-2.3898,-2.3951,-2.39,-2.3901,-2.3901,-2.3902,-2.3903,0,-2.1955,-2.2072,-2.2188,-2.2366,-2.2464,-2.256,-2.2706,-2.2779,-2.2886,-2.3021,-2.3131,-2.3272,-2.3394,-2.3552,-2.3683,-2.3726,-2.3774,-2.3753,-2.3749,-2.3768,-2.3859,-2.3841,-2.3712,-2.3712,-2.3712,-2.3712,-2.3712,-2.3712,-2.1908,-2.201,-2.211,-2.227,-2.2386,-2.251,-2.2585,-2.2691,-2.28,-2.2955,-2.3059,-2.3165,-2.3307,-2.3451,-2.3564,-2.3607,-2.3645,-2.361,-2.3665,-2.3745,-2.3762,-2.3778,-2.3762,-2.3619,-2.3618,-2.3566,-2.3566,-2.3565]},{"header":{"parameterUnit":"m.s-1","parameterCategory":1,"la1":30.2991,"la2":30.254,"lo1":-89.0895,"lo2":-89.0444,"dy":0.0017,"dx":0.0017,"nx":28,"ny":28,"refTime":"2024-06-09T09:00:00:Z","depth":0,"parameterNumber":3,"parameterNumberName":"V-component_of_WINDS"},"data":[0,0,0,0,0,0,0,0,0,0,0,0,0,0,0,0,0,0,0,0,0,0,0,0,0,0,0,0,0,0,0,0,0,0,0,0,0,0,0,0,0,0,0,0,0,0,0,0,0,0,0,0,0,0,0,0,0,0,-4.0155,-4.0156,0,-4.0233,-4.0234,-4.0235,-4.0311,-4.0312,-4.0313,-4.0314,-4.0389,-4.039,-4.0391,0,0,0,0,0,0,0,0,0,0,0,0,0,-4.0066,-4.0067,-4.0155,-4.0156,-4.0157,-4.0233,-4.0234,-4.0235,-4.0311,-4.0312,-4.0313,-4.0314,-4.0389,-4.039,-4.0391,0,0,0,0,0,0,0,0,0,0,0,0,0,-4.012,-4.0068,-4.0155,-4.0204,-4.0209,-4.0233,-4.0234,-4.0236,-4.031,-4.0312,-4.0313,-4.0315,-4.0388,-4.039,-4.0392,-4.0372,0,0,-4.0397,-4.0397,0,0,0,0,0,0,0,0,-4.0117,-4.0124,-4.0196,-4.0201,-4.0206,-4.0264,-4.0231,-4.0281,-4.031,-4.0272,-4.0314,-4.0315,-4.0346,-4.0351,-4.0362,-4.0376,-4.0379,-4.0397,-4.0398,-4.0398,-4.0399,0,0,0,0,0,0,0,-4.0113,-4.0121,-4.0186,-4.0197,-4.0203,-4.022,-4.023,-4.0241,-4.0299,-4.0275,-4.0281,-4.0289,-4.0349,-4.0361,-4.0365,-4.038,-4.0397,-4.0398,-4.0399,-4.04,-4.0379,-4.0378,0,0,0,0,0,0,-4.0103,-4.0117,-4.0183,-4.0188,-4.0165,-4.0221,-4.0231,-4.0244,-4.03,-4.031,-4.0288,-4.0293,-4.0357,-4.0363,-4.0368,-4.0346,-4.0398,-4.04,-4.0401,-4.0381,-4.0379,-4.0377,0,0,0,0,0,0,-4.0101,-4.0108,-4.018,-4.0154,-4.0165,-4.0221,-4.0234,-4.0245,-4.0256,-4.0309,-4.032,-4.0289,-4.0359,-4.0365,-4.037,-4.035,-4.0401,-4.0402,-4.0382,-4.038,-4.0378,-4.0304,0,0,0,0,0,0,-4.0098,-4.0107,-4.0101,-4.0154,-4.0166,-4.0182,-4.0233,-4.0245,-4.0259,-4.0266,-4.0313,-4.0322,-4.036,-4.0367,-4.0372,-4.0353,-4.0403,-4.0384,-4.0381,-4.0379,-4.0308,-4.0299,-4.0292,0,0,0,0,0,-4.0094,-4.0076,-4.01,-4.0108,-4.016,-4.0181,-4.0188,-4.0233,-4.0258,-4.0251,-4.0285,-4.0321,-4.0353,-4.0367,-4.0373,-4.0354,-4.0386,-4.0382,-4.0379,-4.0312,-4.0301,-4.0292,0,0,0,0,0,0,-4.0018,-4.0084,-4.0111,-4.011,-4.014,-4.0194,-4.0187,-4.0221,-4.0242,-4.0247,-4.0302,-4.0312,-4.0309,-4.0333,-4.0349,-4.0338,-4.0374,-4.0371,-4.0321,-4.0311,-4.0303,-4.0295,-4.0405,0,0,0,0,0,-4.0001,-4.0014,-4.0071,-4.0065,-4.0078,-4.013,-4.0141,-4.0174,-4.0206,-4.0218,-4.0253,-4.0281,-4.0297,-4.0306,-4.0325,-4.0314,-4.0323,-4.0304,-4.0296,-4.0289,-4.0284,-4.0278,-4.0269,-4.0366,-4.0366,-4.0366,0,0,-3.9966,-4.0004,-4.0009,-4.005,-4.0077,-4.0087,-4.014,-4.0149,-4.0157,-4.0219,-4.0225,-4.0252,-4.0287,-4.0283,-4.0283,-4.0303,-4.026,-4.0284,-4.0278,-4.0278,-4.0273,-4.0264,-4.0256,-4.0363,-4.0364,-4.0364,0,0,-3.9907,-3.9938,-3.9935,-3.9961,-4.0001,-4.0036,-4.0035,-4.0085,-4.0105,-4.0113,-4.0159,-4.0169,-4.0197,-4.0219,-4.0234,-4.0185,-4.0217,-4.0189,-4.0144,-4.0137,-4.0129,-4.0123,-4.0101,-4.0093,-4.0186,-4.0186,-4.0186,0,-3.9857,-3.9876,-3.9929,-3.9935,-3.995,-4.001,-4.0006,-4.0028,-4.0072,-4.008,-4.0103,-4.0138,-4.0166,-4.0167,-4.0155,-4.0167,-4.0165,-4.0182,-4.0127,-4.012,-4.0115,-4.0095,-4.0087,-4.0182,-4.0182,-4.0183,-4.0183,0,-3.9811,-3.9824,-3.9817,-3.9858,-3.9874,-3.9874,-3.9925,-3.9935,-3.9967,-3.9998,-4.0004,-4.0041,-4.0066,-4.007,-4.0101,-4.0075,-4.0086,-4.0117,-4.0153,-4.0101,-4.0083,-4.0076,-4.0176,-4.0177,-4.0179,-4.018,0,0,-3.9702,-3.9774,-3.977,-3.9789,-3.9838,-3.9848,-3.9852,-3.9878,-3.9883,-3.9912,-3.9914,-3.9937,-3.9966,-3.9983,-4.0017,-4.0012,-3.9966,-4.0043,-4.0045,-4.0024,-3.9935,-3.9908,-3.9899,-3.999,-3.9989,-3.9988,-3.9931,0,-3.9648,-3.9658,-3.9706,-3.9701,-3.9711,-3.9769,-3.9771,-3.9801,-3.9831,-3.9844,-3.9878,-3.9891,-3.993,-3.994,-3.9938,-3.9971,-3.9948,-3.9977,-3.9988,-3.9988,-3.9973,-3.989,-3.9861,-3.9806,-3.9925,-3.9924,-3.9923,0,-3.9585,-3.961,-3.9606,-3.9654,-3.9661,-3.9662,-3.9689,-3.9702,-3.9736,-3.9759,-3.9778,-3.9818,-3.9822,-3.9861,-3.9867,-3.9885,-3.9894,-3.9911,-3.991,-3.9908,-3.9948,-3.9882,-3.979,-3.9779,-3.9913,-3.9914,-3.9915,0,-3.95,-3.9534,-3.9535,-3.955,-3.9608,-3.9607,-3.9631,-3.9667,-3.9679,-3.9704,-3.9712,-3.9736,-3.9748,-3.9765,-3.9809,-3.9834,-3.9809,-3.9851,-3.9824,-3.9823,-3.9812,-3.9811,-3.9715,-3.9826,-3.9826,-3.9826,-3.9826,0,-3.9431,-3.9425,-3.9498,-3.9498,-3.9492,-3.9548,-3.9541,-3.957,-3.9602,-3.9608,-3.9661,-3.9664,-3.9725,-3.9735,-3.977,-3.9768,-3.9774,-3.979,-3.9798,-3.9782,-3.9779,-3.9784,-3.9787,-3.9824,-3.9824,-3.9825,-3.9825,0,-3.9333,-3.9382,-3.9387,-3.9442,-3.9456,-3.9449,-3.9495,-3.9496,-3.9532,-3.9538,-3.9542,-3.9596,-3.9611,-3.9659,-3.9685,-3.9709,-3.9694,-3.9714,-3.9681,-3.9686,-3.9655,-3.9655,-3.9554,-3.9542,-3.9665,-3.9664,-3.9663,0,-3.9283,-3.928,-3.9335,-3.9343,-3.9365,-3.9378,-3.9391,-3.9446,-3.9458,-3.9497,-3.9493,-3.9513,-3.9531,-3.9552,-3.9592,-3.9612,-3.963,-3.9593,-3.9633,-3.9616,-3.9623,-3.962,-3.9619,-3.9582,-3.9581,-3.958,-3.9578,0,-3.9188,-3.9213,-3.9231,-3.9256,-3.9271,-3.9294,-3.9319,-3.9323,-3.9384,-3.9394,-3.9411,-3.9425,-3.9453,-3.947,-3.9497,-3.952,-3.9557,-3.9567,-3.9561,-3.9541,-3.9521,-3.9526,-3.9652,-3.9567,-3.9568,-3.9569,-3.957,-3.957,-3.911,-3.9109,-3.9147,-3.9164,-3.919,-3.9213,-3.9216,-3.9252,-3.9267,-3.9294,-3.9327,-3.9338,-3.9373,-3.9413,-3.9434,-3.9443,-3.9464,-3.9456,-3.9453,-3.9449,-3.9439,-3.9524,-3.9449,-3.9449,-3.945,-3.945,-3.945,0,-3.9013,-3.9041,-3.9057,-3.9091,-3.9104,-3.9143,-3.9174,-3.9181,-3.9191,-3.9221,-3.9238,-3.9256,-3.9273,-3.9316,-3.9338,-3.9336,-3.9354,-3.9339,-3.9337,-3.9341,-3.9422,-3.9423,-3.9324,-3.9324,-3.9324,-3.9325,-3.9325,-3.9325,-3.8964,-3.8963,-3.8992,-3.9004,-3.9032,-3.9044,-3.9058,-3.9078,-3.9102,-3.912,-3.9135,-3.9164,-3.9198,-3.9223,-3.924,-3.9252,-3.9255,-3.9233,-3.925,-3.9324,-3.9336,-3.9347,-3.9348,-3.9235,-3.9235,-3.9168,-3.9167,-3.9167]}]]